Wind_Speed
86 85 81 78 77 77 77 79 81 82 81 81 83 84 84 84 80 77 77 79 79 78 74 71 68 68 69 66 63 63 60 58 57 55 54 53 53 52 51 50 49 46 43 41 42 43 42 41 44 45 42 39 39 40 39 37 35 34 34 34 35 36 36 36 36 36 36 36 35 35 36 36 36 37 38 39 41 42 42 43 44 45 46 46 47 47
87 84 80 78 80 81 81 81 82 84 83 82 83 84 84 82 80 79 79 80 80 79 77 75 71 70 71 69 65 64 61 59 58 56 55 55 54 53 53 53 52 51 46 41 42 45 44 43 44 46 44 41 40 41 40 38 36 36 36 37 38 39 39 38 38 38 39 38 38 39 40 39 39 39 40 41 42 43 44 45 46 47 48 49 50 51
87 83 81 81 83 83 82 80 82 84 84 84 84 84 83 82 81 81 80 80 81 79 79 79 75 73 74 72 67 64 63 61 59 57 57 56 54 54 55 55 54 52 48 43 42 45 45 44 45 46 45 42 42 42 42 41 39 39 39 40 39 40 41 41 41 41 40 40 40 42 43 42 41 41 41 42 44 45 46 47 48 49 51 51 52 53
87 83 82 84 84 83 82 81 81 83 84 84 84 84 84 84 84 83 82 82 82 80 80 81 78 76 77 75 68 65 64 63 61 59 58 57 56 56 57 56 54 52 50 45 43 44 45 45 46 47 46 44 44 45 45 43 42 42 42 42 42 43 44 43 43 43 42 41 42 45 45 44 43 43 44 45 46 47 48 49 50 51 53 54 54 55
88 85 85 86 86 85 84 83 82 83 84 84 84 84 85 86 86 85 85 85 83 81 81 82 80 77 77 76 70 67 66 65 62 60 59 58 58 59 58 56 54 53 51 47 44 44 44 45 46 48 47 46 45 47 48 46 45 45 45 45 45 46 46 45 45 44 44 44 46 47 47 44 44 45 46 47 48 49 50 51 52 53 54 55 56 57
91 88 87 88 87 86 85 84 83 83 85 85 85 85 86 89 89 87 88 88 86 83 82 84 82 76 76 77 72 70 68 66 65 61 59 58 59 60 58 56 55 53 52 50 48 47 45 45 46 48 50 49 48 49 49 49 49 48 47 47 47 48 48 47 47 46 46 47 49 49 47 45 45 47 48 48 49 51 52 52 54 55 56 57 58 58
93 90 89 89 88 87 85 82 82 82 84 85 84 85 88 90 91 90 90 90 88 85 84 86 83 77 78 77 73 73 70 68 67 63 60 59 59 61 60 58 56 53 54 54 53 52 51 49 48 50 51 51 50 50 50 51 50 49 49 48 49 50 50 50 49 49 49 50 51 50 47 47 48 49 49 50 52 53 54 54 55 56 56 58 59 59
93 91 90 90 89 88 85 81 81 82 84 85 84 86 90 92 94 94 92 91 89 87 86 86 84 80 79 75 72 73 72 70 69 65 63 61 60 61 62 61 58 55 56 57 57 57 56 55 52 51 50 51 51 51 51 52 51 51 51 51 51 52 53 52 51 51 52 52 52 50 49 49 50 51 52 55 56 57 58 57 57 57 57 58 59 60
94 93 93 92 91 89 85 82 82 84 85 85 84 87 90 93 97 97 94 92 90 90 87 85 84 81 77 73 72 72 71 70 69 67 66 65 64 64 64 63 61 59 59 60 60 60 59 58 56 52 50 52 52 51 51 52 52 53 53 53 54 55 55 53 52 52 53 53 53 51 50 51 52 54 57 59 61 61 61 60 60 59 58 58 59 60
96 95 95 94 92 89 86 84 85 86 86 86 86 89 92 94 96 98 97 94 94 92 86 84 84 81 75 73 76 73 68 68 69 69 69 68 68 67 67 68 66 64 63 62 62 62 62 61 59 55 52 53 53 52 53 54 54 55 54 54 55 56 56 54 54 54 54 54 53 51 52 54 56 58 60 62 63 63 63 62 62 61 60 59 59 61
95 94 94 92 89 87 86 86 86 87 87 87 88 91 93 94 95 98 98 98 97 92 86 85 85 83 78 76 78 74 68 69 72 72 72 71 71 71 71 72 72 70 68 65 64 64 64 64 63 60 56 56 58 56 56 56 56 56 55 55 55 55 55 54 55 55 55 54 53 53 55 57 60 62 63 65 65 65 65 64 64 63 62 61 63 66
95 93 92 90 89 88 88 88 88 88 88 88 88 89 93 96 97 99 100 101 99 92 87 87 88 88 81 77 79 77 72 72 73 74 74 73 73 73 74 75 74 74 72 70 68 67 66 65 65 63 60 60 62 60 59 58 57 57 56 56 55 54 53 54 55 56 55 55 55 57 58 60 63 64 65 66 66 66 66 66 65 64 64 65 67 70
95 94 93 92 91 91 91 91 90 89 89 88 88 88 91 95 99 101 102 102 99 92 89 90 92 90 81 75 79 80 77 76 75 75 75 74 74 74 74 74 75 74 73 72 71 71 69 67 66 65 64 64 63 62 61 59 57 58 57 56 56 55 55 55 56 56 57 57 58 60 61 63 65 66 67 67 67 67 67 67 67 66 67 69 71 73
97 97 96 95 94 93 93 93 91 90 89 88 88 88 91 94 96 98 100 100 97 93 91 93 96 91 79 76 81 82 81 80 78 77 76 75 75 75 74 74 73 73 73 73 74 74 72 69 68 66 65 65 64 64 63 61 59 59 60 59 59 60 59 58 58 59 60 60 61 63 65 67 68 69 69 68 68 68 68 69 69 70 71 73 74 76
100 99 98 97 96 96 95 95 94 93 92 92 91 92 94 96 95 95 98 99 97 97 96 96 97 90 79 77 82 85 84 83 82 80 78 76 75 75 75 73 73 73 73 74 75 75 73 72 70 68 66 66 66 66 66 64 62 61 62 62 63 64 64 63 62 62 63 64 65 66 68 70 71 70 70 69 69 69 70 71 72 73 74 76 77 78
101 100 99 99 98 98 98 98 97 97 96 95 96 97 96 97 97 97 99 101 100 101 101 98 95 89 82 81 83 86 86 85 84 83 81 79 77 76 75 75 75 74 75 76 76 75 75 73 71 68 66 66 68 68 67 66 64 63 64 65 66 66 67 66 65 65 67 68 69 70 72 73 73 72 71 70 70 71 72 73 75 76 77 78 80 81
102 101 101 100 99 99 99 99 99 99 99 97 97 97 96 97 99 99 100 102 103 104 102 99 94 88 85 83 84 86 87 87 86 84 83 82 81 79 77 76 77 76 77 77 76 76 75 74 71 69 67 67 68 69 69 68 68 67 68 67 68 68 68 68 68 68 69 71 72 73 75 75 76 74 73 73 73 74 75 76 77 78 79 81 82 83
104 104 104 103 102 102 102 102 102 102 101 99 97 96 98 101 102 101 100 102 105 105 102 99 95 90 87 84 83 86 88 88 88 86 85 84 82 82 80 79 78 77 78 78 77 75 74 73 72 71 70 70 70 70 70 69 70 70 71 70 70 70 70 70 70 71 72 73 75 76 77 78 77 77 76 76 76 76 77 78 79 80 81 83 84 85
106 105 105 105 104 103 103 104 103 102 101 99 97 96 99 103 103 102 102 103 105 105 102 99 97 93 89 86 85 86 88 89 89 88 87 86 85 84 84 83 82 79 79 80 78 76 74 73 72 72 72 73 72 71 70 69 69 70 71 71 71 72 72 73 73 74 75 76 77 78 79 79 79 78 79 79 79 79 80 80 81 82 83 84 85 87
106 106 105 104 104 104 103 103 102 102 101 100 99 98 99 101 102 103 102 102 104 106 104 101 99 95 90 88 87 87 88 90 91 90 89 88 87 88 88 87 86 83 81 80 80 79 77 75 74 74 75 76 76 75 74 73 72 72 72 72 72 73 73 74 75 76 77 77 78 79 80 81 81 81 81 81 81 82 83 84 84 85 85 86 88 90
105 105 105 105 105 103 102 102 102 102 102 101 101 100 100 102 103 104 103 102 103 106 106 104 102 96 91 89 88 88 88 90 91 91 90 90 90 90 90 89 88 87 84 82 81 81 80 79 78 78 79 80 80 80 79 78 78 78 78 77 77 77 77 78 79 79 79 79 79 80 82 84 84 84 84 84 85 85 86 86 86 86 87 88 91 93
105 104 104 104 103 102 102 103 104 104 104 103 103 102 102 103 106 107 105 102 103 106 108 107 104 98 92 90 89 89 89 89 90 91 92 92 92 91 91 90 89 89 89 87 85 84 84 84 83 83 82 82 82 81 80 80 81 81 82 83 83 83 82 82 81 81 80 80 81 83 85 87 87 87 87 87 88 88 88 87 87 88 89 92 94 96
104 104 103 102 101 102 103 104 105 106 106 106 104 103 103 105 107 108 107 104 104 107 109 110 106 99 94 92 91 90 90 89 90 92 93 95 95 93 92 91 90 91 91 91 90 89 88 87 87 85 84 84 84 83 82 82 82 82 83 84 85 85 85 84 83 83 83 83 84 86 87 89 89 89 89 88 88 88 88 88 89 91 93 96 98 99
102 103 103 102 102 102 103 104 105 106 107 107 106 105 105 105 106 108 108 106 106 106 108 111 107 99 95 95 93 92 92 91 91 92 94 95 96 95 94 93 93 92 93 93 92 91 90 89 88 87 86 86 86 86 85 84 84 84 84 85 86 87 87 86 86 85 85 86 87 88 89 91 91 91 90 90 89 90 90 91 93 95 98 100 101 102
99 99 100 100 100 101 101 101 102 103 104 105 106 106 106 106 107 109 109 109 108 105 107 110 107 100 97 96 95 95 94 93 92 93 94 96 97 97 97 96 95 94 94 93 93 92 91 90 89 88 88 88 88 88 87 86 86 86 86 87 88 89 89 88 88 87 88 89 89 90 92 93 93 92 92 92 92 93 94 95 97 99 102 103 104 105
100 100 99 99 99 98 98 98 99 101 103 105 107 108 107 107 107 109 111 112 109 106 106 108 106 102 99 98 98 98 97 96 95 94 95 97 98 98 98 98 97 96 95 94 93 92 91 90 90 90 90 90 90 90 89 88 87 88 89 90 90 90 91 91 91 91 92 92 93 94 94 94 94 94 94 94 94 95 97 99 101 104 105 106 107 108
99 99 98 96 95 95 96 97 99 103 105 107 108 109 110 110 110 111 114 113 109 107 107 107 106 103 101 100 101 100 99 98 99 98 98 99 100 99 99 99 98 97 96 95 94 92 92 91 90 90 90 91 91 91 90 89 89 90 91 91 92 92 93 94 95 95 96 96 96 96 96 95 95 94 95 95 97 99 101 104 106 107 108 108 109 110
93 92 91 91 92 93 94 95 98 101 104 106 108 109 110 111 111 111 112 112 111 110 108 107 106 104 103 104 105 104 102 101 102 102 102 101 102 101 101 100 99 98 97 96 95 93 92 92 91 91 91 91 92 92 92 92 93 93 93 93 93 94 95 97 98 98 98 97 96 96 96 96 95 95 96 98 101 104 106 107 108 109 110 110 111 111
86 85 86 88 90 91 93 94 95 99 102 105 107 107 108 109 109 109 108 109 111 110 107 107 108 106 106 107 108 107 105 104 104 104 103 103 103 103 102 102 101 99 97 96 95 94 94 93 92 92 92 92 93 94 95 95 96 96 95 95 95 96 98 99 99 99 99 98 97 98 98 97 98 99 101 104 107 108 109 110 110 111 112 112 112 113
82 81 83 86 88 89 91 93 94 97 101 104 105 106 106 107 107 106 105 107 110 108 104 106 108 107 107 108 108 108 107 107 105 104 104 105 105 105 104 103 102 100 98 97 97 95 94 94 93 93 93 94 96 97 98 98 98 98 98 98 98 99 100 100 100 100 100 100 100 100 100 100 102 104 107 109 110 111 111 112 113 113 113 113 113 114
81 80 81 84 87 88 89 91 94 97 99 101 102 102 103 104 104 104 105 107 109 107 104 106 108 107 106 106 107 107 107 107 106 105 105 107 107 107 106 105 103 101 99 98 98 97 96 95 95 95 95 97 98 99 100 101 100 100 100 101 101 101 101 101 101 101 101 101 102 102 103 104 107 109 111 111 112 113 114 114 114 114 114 114 115 116
78 79 80 82 85 85 86 89 92 96 99 100 98 97 98 100 102 103 104 106 107 106 105 106 107 108 106 105 106 108 108 108 108 107 108 109 109 110 110 108 106 103 101 100 99 99 98 98 98 98 99 100 101 101 102 102 102 103 103 103 103 102 102 102 102 102 103 104 104 105 106 108 110 112 112 113 114 115 115 116 116 115 115 116 117 119
75 77 78 80 82 82 83 86 89 94 98 97 91 91 96 99 100 101 103 105 106 107 106 106 108 112 110 107 107 109 111 111 110 110 111 112 112 113 112 110 107 105 103 103 102 102 102 102 102 102 103 103 103 104 104 104 105 105 105 105 104 104 104 104 104 104 105 105 106 107 109 111 112 113 113 114 115 116 116 117 117 117 117 118 120 121
76 77 78 80 82 82 83 84 87 92 93 89 84 89 96 98 99 100 102 104 107 107 106 106 109 114 114 110 108 110 112 113 114 114 114 115 115 114 112 110 108 107 106 106 106 106 106 106 107 106 106 106 106 106 106 106 106 106 106 106 106 105 105 105 105 105 106 106 107 109 111 112 113 114 114 115 116 117 117 117 118 118 119 121 122 123
80 80 80 79 80 82 82 84 86 87 85 82 84 91 96 96 97 99 101 103 105 105 105 105 109 114 116 112 109 110 112 114 115 117 118 118 117 115 113 110 109 109 109 108 109 109 109 109 109 108 108 107 107 107 107 107 108 108 108 107 107 107 107 107 107 107 108 109 110 112 112 113 114 115 116 117 117 118 118 119 120 121 123 124 126 127
81 79 78 79 80 81 82 83 83 81 79 83 87 90 91 94 97 100 101 102 103 104 104 104 107 112 115 114 110 110 112 114 115 117 118 119 119 117 114 111 110 110 111 111 111 112 112 112 110 109 109 108 108 109 109 110 110 110 109 109 108 109 109 110 110 110 111 112 114 114 115 115 116 116 117 118 118 119 121 122 123 125 127 129 130 131
80 78 78 79 80 81 81 81 80 79 80 83 85 84 85 90 97 101 102 101 102 103 103 103 105 109 113 114 111 109 111 114 115 115 115 117 118 117 114 111 111 112 112 113 113 113 113 113 112 111 110 110 110 110 110 111 111 111 110 110 110 110 111 111 112 113 115 116 117 117 117 117 117 118 118 120 121 122 124 125 127 129 130 132 132 132
79 78 78 78 79 79 80 79 78 78 77 76 79 82 83 87 94 101 103 99 98 101 102 102 104 107 112 114 112 110 110 111 110 110 111 115 117 116 115 114 115 115 115 114 113 113 113 113 112 112 111 111 111 112 112 112 112 112 112 112 112 112 113 114 115 117 119 119 119 119 119 119 119 120 121 123 124 125 126 128 130 131 132 133 133 133
80 80 80 81 80 77 77 76 75 74 72 72 76 82 84 84 90 99 102 97 94 98 102 103 104 107 112 114 114 112 108 103 101 103 108 114 117 118 117 117 117 117 116 115 114 114 113 113 113 113 112 112 113 113 113 113 114 114 114 115 115 116 116 117 119 121 122 121 121 121 121 122 123 124 125 126 127 128 130 131 132 133 133 134 134 135
78 79 80 80 77 73 72 73 71 69 69 72 76 80 82 85 90 96 99 95 91 95 103 105 106 108 112 114 114 109 103 97 94 97 106 114 118 118 116 116 115 115 115 115 115 115 115 115 115 115 114 114 114 115 115 115 115 115 116 116 117 118 119 120 122 123 123 123 123 123 124 125 126 127 128 129 130 131 132 133 133 134 134 135 135 136
77 78 79 78 74 71 71 70 68 66 67 71 75 77 80 87 90 89 88 89 92 97 105 109 108 108 110 112 110 105 100 96 93 94 99 107 112 114 113 113 113 113 113 114 114 115 116 116 117 117 117 117 117 117 117 117 118 118 118 119 119 120 121 123 123 123 124 124 125 126 126 127 128 129 130 132 132 133 133 134 134 135 135 135 135 135
76 75 75 74 72 70 70 69 69 66 66 69 74 76 79 84 87 85 86 92 98 102 106 108 108 108 108 108 108 104 100 97 94 91 92 96 102 107 110 110 111 112 113 114 114 115 115 116 117 118 118 119 120 120 120 120 120 120 121 121 121 122 123 124 124 125 126 126 127 128 129 130 131 131 132 133 133 133 133 134 134 134 134 133 133 134
74 73 72 69 67 68 69 70 69 63 62 66 72 74 76 79 84 89 92 96 98 101 102 102 103 106 107 106 106 105 102 100 96 93 90 90 94 100 104 107 108 109 111 112 113 114 115 116 117 118 118 119 120 120 121 121 121 121 121 122 123 124 124 125 125 126 127 128 128 129 130 131 131 131 132 132 132 132 132 132 132 131 132 132 132 133
75 73 69 65 65 66 67 68 65 60 61 68 72 74 76 79 85 89 91 92 93 96 99 98 98 102 106 107 107 107 105 102 100 96 92 90 90 94 97 101 103 105 106 108 110 112 113 114 115 117 118 118 119 120 120 120 121 121 121 122 123 124 124 125 126 127 127 128 128 129 129 129 129 129 129 129 129 129 129 129 130 130 131 131 132 132
68 68 66 65 66 67 67 67 66 65 67 71 73 75 77 81 83 85 86 89 91 93 96 97 96 98 103 106 109 109 108 106 103 100 97 92 90 90 92 95 98 100 102 103 105 106 108 110 111 112 113 115 116 117 118 119 119 120 121 122 122 123 124 124 125 125 125 125 125 125 126 126 126 126 126 127 127 128 128 129 129 130 130 130 131 131
64 66 68 68 71 72 71 70 69 68 68 70 72 74 76 78 79 80 81 84 87 89 92 94 95 95 98 102 106 109 111 110 107 104 101 97 93 91 91 92 94 95 97 99 100 102 103 105 106 107 108 108 110 111 112 113 114 115 116 117 118 119 120 120 120 121 121 121 121 122 123 123 124 124 125 126 127 127 128 128 129 129 129 130 130 131
65 67 69 71 73 74 71 69 69 70 70 71 72 74 76 78 79 80 79 81 84 87 90 93 95 95 96 98 102 107 110 112 111 108 105 102 100 98 96 95 94 95 95 96 97 99 100 101 103 104 105 106 107 107 108 109 110 110 112 113 113 114 115 116 116 117 118 119 120 121 122 123 124 125 125 126 126 127 127 127 128 128 128 129 130 131
67 69 71 73 74 73 70 70 72 72 72 72 72 72 74 77 80 82 82 82 84 86 89 92 94 95 96 97 99 103 107 110 113 113 111 108 106 104 103 102 101 100 100 99 99 99 100 100 102 103 105 106 108 109 109 110 111 112 113 113 114 115 116 117 118 119 120 121 121 122 123 124 124 125 125 125 126 126 126 127 127 128 129 130 131 132
70 72 73 73 74 74 71 70 72 72 71 72 71 71 73 77 80 83 83 82 82 83 85 87 89 92 93 95 97 99 103 106 110 113 115 114 111 109 108 107 106 106 105 104 104 103 103 103 103 104 105 106 108 109 110 111 113 114 115 116 117 118 118 119 119 120 120 121 121 122 122 123 123 124 124 124 125 125 126 127 128 129 130 132 133 134
69 69 70 72 73 71 69 68 71 72 73 73 74 76 78 80 81 81 81 80 78 78 79 81 84 87 89 91 93 95 98 101 105 109 112 114 114 113 111 110 110 109 109 108 107 107 106 106 106 106 106 107 108 108 109 111 112 113 114 114 115 116 117 117 118 118 119 119 120 120 121 122 122 123 124 125 126 127 128 129 131 132 132 133 134 134
68 69 71 73 72 70 71 73 75 77 78 77 78 79 80 79 78 77 77 76 74 73 74 75 78 80 83 85 88 89 91 94 98 101 105 109 111 113 113 112 112 112 112 112 112 111 110 110 109 109 109 109 110 110 110 111 111 112 112 113 113 114 114 115 116 116 117 118 119 120 122 123 124 125 126 127 129 130 130 131 132 132 132 132 132 132
Wind_Direction
220 220 221 222 223 223 223 225 224 223 224 224 225 226 228 231 231 228 227 228 230 232 232 230 229 229 231 231 231 233 234 234 235 233 232 232 235 238 238 236 234 236 240 246 250 250 248 250 254 256 262 268 270 269 268 270 275 279 280 279 279 282 284 286 289 291 293 296 297 297 299 300 302 304 305 305 305 305 307 308 309 310 310 310 311 312
220 220 220 222 223 223 223 224 225 224 224 225 225 226 227 229 230 229 227 228 230 231 231 231 229 230 232 232 231 232 233 233 234 233 231 232 236 239 240 240 238 237 238 242 247 249 249 251 253 256 260 265 269 269 267 268 273 275 275 277 281 283 283 283 285 287 290 292 293 295 297 298 299 301 303 304 304 303 304 306 308 308 309 309 309 309
220 220 221 222 223 223 223 224 225 225 224 225 226 226 227 227 227 228 227 227 229 229 230 231 230 230 233 234 232 232 233 232 232 232 233 235 239 241 242 242 241 241 241 242 245 249 251 253 255 256 258 263 268 268 265 266 270 272 274 279 282 282 282 282 283 285 287 289 291 294 296 296 297 299 301 302 303 303 303 306 307 308 309 309 309 308
221 220 221 223 224 224 223 223 224 225 225 225 226 226 227 226 225 227 227 227 227 227 228 231 231 230 233 235 234 233 233 233 232 232 235 237 241 243 242 242 241 241 243 244 245 249 252 253 254 255 256 262 266 265 263 265 268 271 274 277 279 280 280 280 281 283 285 285 288 292 295 295 295 298 300 302 303 302 303 305 307 308 309 309 309 308
221 220 222 224 224 223 223 223 224 225 225 225 225 225 226 227 225 225 227 227 226 226 227 230 231 230 233 236 234 233 233 233 233 232 234 237 239 241 242 241 240 241 245 245 244 246 250 252 253 253 256 261 263 261 261 264 267 270 272 275 278 279 278 278 279 280 282 282 286 290 292 292 293 296 298 301 302 301 302 304 306 307 308 308 308 307
221 220 222 224 225 224 223 223 224 225 226 225 225 226 226 228 227 224 226 228 226 225 224 227 230 230 232 236 235 233 233 233 233 232 232 234 237 239 240 240 239 242 246 245 242 242 245 249 252 253 257 260 260 260 262 265 267 270 272 275 276 277 277 277 278 278 279 281 285 289 289 289 291 294 297 299 300 300 301 303 305 306 306 307 306 306
221 221 222 225 225 225 224 224 225 226 227 226 226 227 226 227 228 225 225 228 228 226 225 226 228 228 230 233 234 234 234 233 234 233 232 233 234 237 239 238 240 243 245 245 244 243 244 245 248 253 258 260 261 263 265 265 265 268 271 273 274 274 274 276 277 277 278 281 285 286 286 287 289 293 296 298 298 299 300 301 303 304 305 305 305 304
222 222 223 225 226 225 224 224 225 226 227 226 225 227 227 227 228 227 226 227 229 229 227 228 229 227 229 231 233 234 234 234 235 234 234 235 235 236 238 238 240 243 244 245 246 248 248 247 247 252 257 260 262 263 263 262 263 266 270 271 272 272 272 274 275 276 278 281 283 283 284 286 289 293 297 298 298 297 298 299 301 303 303 303 303 303
222 222 223 225 225 225 225 224 225 226 226 226 225 227 228 227 229 229 228 228 229 230 228 229 231 230 229 231 233 234 233 234 235 236 236 237 237 237 238 239 240 242 243 245 247 249 251 250 248 251 256 259 261 260 260 261 263 267 270 271 271 271 271 272 273 274 277 280 281 281 283 286 290 294 297 298 298 297 296 297 300 302 302 302 302 302
223 223 223 225 225 225 226 225 225 227 227 226 226 227 228 228 229 230 230 228 228 230 228 228 230 231 229 231 235 235 232 232 233 235 236 238 239 239 240 242 242 243 244 246 248 249 251 252 251 250 253 256 256 258 260 262 264 267 270 271 271 269 268 269 270 273 276 278 279 280 283 288 292 294 297 298 298 297 296 296 298 301 301 300 300 300
224 225 226 226 227 227 227 227 227 228 228 227 227 228 229 230 229 230 231 229 229 229 228 226 229 231 229 231 236 237 233 231 231 233 235 236 239 240 241 243 244 245 246 248 250 251 252 253 252 250 249 251 253 257 261 263 265 268 270 272 271 267 265 266 268 272 275 276 277 281 285 289 292 294 296 297 298 297 296 296 297 299 299 299 298 299
226 227 228 228 229 229 229 229 228 228 228 228 229 230 231 231 230 230 231 231 231 229 227 228 230 231 230 231 235 236 233 232 233 234 235 236 237 240 242 244 246 247 249 251 252 252 252 252 251 249 248 249 252 256 261 263 266 268 269 269 268 265 263 265 268 271 273 274 277 282 286 289 292 294 295 296 296 296 296 296 296 297 297 298 299 300
227 227 228 229 229 229 230 230 230 229 229 229 229 230 232 232 231 231 232 234 233 230 227 229 233 234 232 229 232 235 234 232 234 235 236 237 238 240 243 245 248 250 251 252 252 252 251 250 249 248 248 250 252 255 259 263 265 267 267 266 265 265 267 268 269 270 271 273 278 282 285 288 290 292 293 294 294 294 294 294 295 295 296 297 298 299
229 229 229 230 230 230 231 231 231 231 230 230 230 231 232 232 232 233 234 234 234 231 227 229 233 234 230 227 230 234 234 232 233 235 237 239 240 242 243 245 248 250 251 252 252 251 249 248 249 250 251 253 255 256 259 261 264 265 265 264 266 268 270 272 271 270 271 274 277 281 283 286 289 291 292 292 292 292 292 293 293 294 295 295 296 298
230 230 230 231 231 231 232 231 230 230 230 229 229 230 232 232 231 231 232 232 231 231 228 228 231 232 228 226 229 233 234 234 234 235 237 239 241 242 243 244 246 248 250 251 250 248 248 248 249 251 254 256 259 259 259 260 262 263 263 264 266 268 270 272 272 272 273 275 278 280 283 285 288 289 290 290 290 291 291 292 292 293 293 294 295 297
233 233 232 232 232 232 232 232 231 230 230 229 229 230 231 232 231 230 230 230 229 230 230 229 230 230 227 225 227 231 234 235 234 235 236 238 240 241 242 243 245 247 248 248 248 247 247 248 249 252 255 258 260 260 259 259 261 261 261 263 265 267 268 270 271 272 273 276 278 280 282 284 287 288 288 288 289 289 290 291 291 292 292 293 294 296
235 235 235 234 234 234 234 233 232 231 230 230 230 231 232 233 232 231 230 230 230 231 232 231 230 229 226 225 226 229 233 235 235 235 235 237 238 240 242 242 243 245 246 246 246 246 247 248 249 251 255 258 259 259 259 259 259 259 260 262 264 266 268 269 271 272 274 275 277 279 281 283 285 286 286 287 287 288 289 290 290 291 291 292 293 294
236 236 236 235 235 234 234 233 232 232 231 230 231 232 232 232 232 231 231 231 231 231 232 232 231 228 226 225 226 229 232 235 236 236 236 236 237 239 240 241 242 242 243 245 245 245 247 248 249 252 255 257 257 257 259 260 260 260 261 263 264 266 268 269 271 272 273 275 277 279 281 282 284 285 286 287 287 288 289 289 290 290 291 292 292 294
237 237 237 236 235 235 234 234 233 233 232 232 231 232 233 233 233 232 232 231 231 231 231 232 232 229 227 226 226 228 231 234 236 237 238 238 238 239 240 241 242 241 242 243 243 244 246 248 250 253 256 258 256 255 257 259 261 262 263 264 265 267 268 269 271 272 274 275 277 279 281 283 285 286 287 287 287 288 288 289 290 290 291 291 292 293
239 239 239 238 238 236 235 235 234 234 234 233 232 232 233 234 234 233 233 232 232 232 231 232 233 231 229 227 226 227 230 233 235 237 238 239 240 240 240 241 242 243 243 243 243 244 246 248 251 254 256 256 255 254 255 257 259 261 262 263 265 266 267 269 270 272 273 275 277 279 282 284 286 286 286 287 287 288 288 289 289 289 290 290 292 294
239 239 240 240 239 238 237 236 235 235 235 234 233 233 233 234 234 234 233 232 232 232 232 232 233 232 230 229 228 228 229 231 234 236 238 239 241 242 242 242 243 244 245 244 244 244 245 248 252 254 255 255 254 254 255 257 259 260 261 262 263 265 267 268 270 272 274 276 278 280 283 284 285 285 285 286 286 287 287 288 288 288 289 291 292 294
239 239 240 240 240 239 238 237 236 235 234 233 233 232 232 233 234 233 233 232 232 232 232 232 232 231 230 229 229 228 228 230 232 235 237 239 241 242 243 242 243 244 245 245 245 245 246 249 251 253 254 254 254 255 257 259 261 262 263 264 264 265 267 269 271 273 274 276 278 281 282 283 284 284 284 285 285 286 287 287 288 289 290 291 293 294
239 239 239 239 239 239 238 237 236 235 234 233 232 232 232 233 233 234 233 233 232 231 232 232 231 230 229 229 228 229 229 230 231 233 236 238 239 241 242 242 243 243 244 245 246 247 249 250 252 253 253 253 254 256 259 261 263 264 265 265 266 266 267 269 271 273 274 276 278 280 282 283 283 283 284 285 285 286 286 287 288 289 290 291 292 293
238 238 238 238 238 237 237 236 236 235 234 233 232 232 232 232 233 233 233 233 232 231 232 233 232 230 230 230 229 230 231 231 231 233 234 237 239 240 241 242 242 243 244 245 247 248 250 251 252 253 253 253 254 256 259 261 263 264 265 265 266 267 268 269 271 272 274 276 278 279 281 283 283 283 283 284 284 285 285 286 287 288 289 291 292 293
237 237 237 236 236 236 236 236 236 236 236 234 233 232 233 232 232 232 233 233 233 232 232 234 233 230 229 231 231 231 231 232 233 234 235 236 238 240 241 241 242 243 244 245 246 247 249 251 251 252 252 253 254 255 258 260 261 262 263 264 265 267 268 269 270 272 274 276 277 278 281 282 281 281 282 282 283 283 284 285 286 288 290 291 291 292
234 234 234 234 234 234 235 235 236 236 235 234 232 232 232 231 231 232 232 233 233 233 233 234 234 231 230 231 232 232 232 232 234 235 235 236 237 238 240 241 242 242 243 244 245 246 248 249 250 251 251 253 254 255 257 259 260 261 262 264 265 266 267 269 271 272 274 275 276 278 280 281 280 280 281 281 282 283 284 285 287 288 289 290 290 291
233 233 233 233 233 234 234 234 234 234 234 234 232 231 231 231 231 231 232 232 233 233 233 233 232 231 230 230 231 232 231 232 233 235 235 236 237 237 239 240 241 242 243 243 244 245 246 247 249 250 251 253 254 256 257 258 260 261 262 264 265 266 268 270 271 273 274 276 276 278 280 280 279 279 280 281 282 283 284 285 286 287 288 289 289 290
234 234 234 234 233 233 233 234 234 234 234 234 233 232 232 232 232 231 232 233 233 233 233 232 230 230 230 230 231 231 231 231 232 234 235 236 237 238 238 239 241 242 243 243 244 245 246 248 249 250 252 253 254 255 256 258 259 260 262 263 265 267 269 270 272 273 274 276 276 278 279 278 277 278 278 280 281 282 284 285 286 287 288 289 289 290
234 233 233 232 232 232 232 233 234 234 234 233 233 232 232 232 232 232 232 233 234 234 234 233 230 231 232 232 232 232 232 232 232 233 235 236 237 238 239 239 240 241 243 244 244 245 246 248 249 250 252 253 254 254 255 257 258 259 261 263 265 267 269 270 272 273 273 274 275 276 276 276 275 276 277 279 281 282 284 286 287 288 288 289 290 291
236 234 232 232 232 232 232 232 233 234 234 234 233 232 232 232 232 232 232 232 234 234 233 231 231 232 233 234 234 234 233 233 234 234 235 237 238 239 239 240 240 241 242 243 244 245 247 248 249 251 252 252 253 253 254 256 257 258 260 262 264 267 269 270 270 271 272 273 274 274 274 274 274 276 278 280 282 283 285 286 287 288 289 290 291 292
238 235 233 233 233 233 233 233 233 233 234 234 233 233 233 233 233 232 232 232 233 233 232 230 230 230 232 234 234 234 234 234 235 235 235 237 238 239 240 240 240 241 241 242 243 244 246 248 249 251 251 252 252 253 254 255 256 258 260 262 265 267 268 269 270 270 271 272 272 273 273 274 275 277 279 281 283 284 286 287 288 288 289 290 292 293
240 237 235 234 234 233 234 234 233 233 233 232 232 232 233 233 233 232 232 232 233 233 232 231 229 228 231 234 234 233 234 234 234 235 235 236 237 239 240 241 241 242 242 242 243 244 246 248 249 250 251 251 252 253 254 255 256 258 261 263 265 267 267 268 268 269 270 270 271 272 273 275 277 279 281 282 284 285 286 287 287 288 289 290 292 294
240 239 237 236 235 234 234 235 234 234 233 231 230 232 232 232 232 232 231 231 232 232 232 232 229 227 229 233 235 234 234 234 234 235 235 236 237 238 239 241 242 243 243 243 243 245 246 248 250 250 251 252 252 253 254 256 258 260 262 264 265 266 267 267 267 268 269 269 270 272 275 277 279 280 282 283 284 285 286 286 287 288 289 290 292 293
236 236 235 235 235 234 234 234 234 233 232 230 230 231 231 231 231 231 230 231 232 232 232 231 229 228 229 232 236 236 235 235 235 236 236 237 238 238 239 241 242 243 243 244 244 246 247 249 250 251 252 252 253 255 256 258 259 261 263 264 266 266 266 266 267 268 268 270 272 275 277 279 280 281 282 283 284 285 285 286 286 287 288 290 291 291
232 232 233 234 235 235 234 235 235 234 232 230 229 230 231 231 230 230 230 230 231 232 232 231 230 229 229 232 236 238 237 237 237 237 238 239 239 240 240 241 242 244 244 245 246 247 248 249 250 251 252 253 254 256 257 258 260 261 263 264 265 266 266 266 267 267 269 271 274 276 277 279 280 281 282 282 283 284 284 285 286 286 287 288 289 289
233 233 233 234 235 235 235 236 236 234 233 231 229 231 234 233 231 230 230 230 231 232 232 231 231 231 230 232 235 238 239 238 238 238 239 240 241 241 241 241 242 244 245 246 247 247 248 249 250 251 252 254 255 255 257 258 259 261 262 263 264 265 265 265 266 267 269 272 275 276 277 278 279 280 281 281 282 282 283 283 284 285 286 287 288 288
237 237 237 236 236 237 236 236 236 234 232 231 231 232 236 237 234 231 230 230 231 232 232 232 232 232 232 233 235 238 240 240 240 239 240 241 242 242 242 242 243 244 245 246 247 248 249 251 252 252 253 254 255 256 257 258 259 260 262 262 263 264 264 265 266 267 270 273 275 276 277 277 278 279 279 280 280 281 281 282 283 284 285 286 287 288
240 240 241 241 240 240 240 239 238 236 233 233 234 234 236 239 238 234 230 230 232 233 232 232 233 233 233 233 234 237 240 241 242 241 241 241 241 241 241 242 242 243 244 246 247 249 250 252 253 254 255 256 256 257 258 259 260 261 262 262 263 264 264 265 266 269 271 273 274 275 275 276 277 277 278 278 279 280 281 282 283 284 285 286 287 287
242 242 243 242 242 242 244 244 242 239 236 235 236 235 236 240 242 239 232 229 233 236 234 232 232 233 233 233 234 236 239 242 243 243 243 242 242 241 242 242 243 244 245 246 248 249 250 251 252 254 255 256 257 257 258 259 261 261 262 263 263 264 265 266 267 269 270 272 273 274 274 275 276 276 277 278 279 280 281 282 283 284 285 286 286 287
244 244 244 244 244 245 247 247 245 242 239 238 238 238 238 240 243 242 237 231 233 238 237 233 232 233 233 233 234 236 238 241 243 244 244 244 244 243 243 244 245 246 246 247 248 249 250 251 252 253 254 255 256 257 258 259 260 261 262 263 263 264 265 266 267 268 270 271 272 273 274 275 276 276 277 278 279 281 281 282 283 284 284 285 286 286
242 242 242 243 243 244 246 246 245 243 242 241 239 240 241 242 243 245 243 237 235 237 238 235 233 232 233 234 234 236 237 239 242 245 247 247 247 246 246 245 246 246 247 248 248 249 250 251 252 252 253 254 255 256 257 258 259 260 261 262 263 264 265 266 267 268 270 271 272 273 274 275 276 277 278 279 280 280 281 282 282 283 284 284 285 286
242 242 242 243 243 244 244 245 243 242 242 243 241 240 242 245 246 246 245 240 236 235 238 239 236 233 234 235 235 236 237 238 241 244 247 249 249 249 248 247 247 247 248 248 249 250 250 251 252 253 254 255 256 256 257 258 259 260 261 262 263 264 265 266 268 269 270 271 272 273 274 275 276 277 278 278 279 280 280 281 282 282 283 284 285 286
243 242 242 243 244 244 244 245 245 243 244 246 245 243 243 245 246 245 244 242 239 236 238 242 240 236 234 235 236 236 237 238 239 242 245 248 249 250 250 249 249 249 249 249 250 251 252 252 253 254 255 256 257 258 259 260 260 261 262 263 264 265 266 267 268 269 270 271 272 273 274 275 275 276 277 278 278 279 280 281 281 282 283 284 285 285
243 243 244 245 246 247 247 249 248 246 244 245 244 241 240 240 242 243 244 243 242 240 239 242 243 240 237 236 236 237 237 238 239 240 242 245 247 249 250 251 251 251 251 251 251 252 253 253 254 255 256 257 258 259 260 260 261 262 263 264 265 266 267 268 269 270 270 271 272 273 274 274 275 276 276 277 278 278 279 280 281 282 283 284 285 286
245 246 246 246 247 248 248 248 247 243 240 241 242 241 240 240 242 245 246 246 245 243 241 242 244 244 241 238 237 237 238 238 239 240 241 243 245 247 249 251 252 252 252 253 253 253 254 255 255 256 257 258 258 259 260 261 262 262 263 264 265 266 267 267 268 269 270 271 271 272 273 273 274 275 275 276 277 278 279 280 281 282 283 284 285 286
244 244 244 244 245 246 246 246 247 246 244 243 244 244 243 243 243 245 246 247 247 246 244 244 244 245 245 243 240 239 239 239 240 241 242 243 244 245 247 249 251 252 253 253 253 254 254 255 256 256 257 258 259 259 260 261 261 262 263 264 264 265 266 267 267 268 269 269 270 271 272 273 273 274 275 276 278 279 280 281 282 283 284 284 285 286
242 243 244 244 245 246 246 247 247 246 245 244 243 244 244 244 244 244 245 246 247 247 246 246 245 246 246 246 244 243 241 241 242 243 243 244 244 245 246 248 249 250 251 252 253 253 254 254 255 256 256 257 258 259 259 260 261 261 262 263 264 264 265 266 266 267 268 269 270 271 272 273 274 275 277 278 279 280 281 282 283 283 284 285 285 286
241 242 243 244 245 245 245 245 245 245 244 244 244 245 247 248 247 247 247 247 247 248 248 248 248 248 248 248 248 247 245 244 243 244 244 245 246 246 247 247 248 249 250 251 252 253 254 254 255 256 256 257 258 259 259 260 261 262 262 263 264 265 265 266 267 268 269 270 272 273 274 275 276 277 278 279 280 281 281 282 283 283 284 285 285 286
240 242 243 244 245 245 244 244 245 245 244 243 242 243 244 246 247 247 248 248 249 249 250 250 250 250 250 250 250 249 248 247 246 245 246 246 247 247 248 248 249 250 250 251 253 253 254 255 256 257 258 258 259 260 260 261 262 263 263 264 265 266 267 268 269 270 271 272 273 274 275 276 277 278 278 279 280 280 281 282 282 283 284 284 285 286
243 245 247 247 248 248 248 246 245 244 243 241 240 239 240 242 244 246 247 248 248 249 250 250 250 251 251 251 251 251 250 250 249 248 248 248 248 249 250 250 251 251 252 252 253 254 255 256 257 258 259 260 260 261 262 262 263 264 264 265 266 267 268 269 270 271 272 273 274 274 275 276 277 277 278 278 279 280 280 281 282 283 283 284 285 286
248 248 248 248 248 247 245 242 241 241 241 240 240 241 242 243 245 247 249 250 250 251 251 251 251 251 251 251 251 252 252 252 252 252 252 251 251 251 252 253 253 253 254 254 254 255 256 257 258 259 259 260 261 262 262 263 264 264 265 266 267 268 269 269 270 271 272 273 273 274 275 275 276 277 277 278 279 280 281 282 282 283 284 284 285 285
Height
10707 10714 10722 10731 10735 10736 10738 10738 10743 10749 10751 10753 10757 10762 10767 10773 10783 10790 10792 10795 10798 10804 10810 10815 10819 10819 10818 10823 10829 10832 10837 10842 10845 10848 10851 10852 10853 10855 10857 10859 10861 10862 10864 10869 10871 10870 10870 10872 10873 10873 10874 10874 10874 10875 10876 10876 10876 10876 10876 10875 10875 10875 10875 10875 10875 10874 10873 10873 10872 10872 10871 10870 10869 10868 10867 10866 10864 10863 10861 10860 10859 10857 10856 10854 10853 10851
10701 10711 10721 10724 10723 10724 10727 10729 10736 10742 10746 10748 10753 10759 10764 10771 10778 10781 10784 10788 10793 10799 10804 10807 10813 10815 10814 10818 10824 10828 10834 10838 10841 10844 10847 10848 10849 10851 10854 10856 10858 10858 10861 10865 10866 10865 10866 10868 10869 10870 10871 10871 10871 10872 10873 10873 10873 10873 10872 10872 10873 10872 10872 10872 10872 10871 10870 10870 10869 10868 10868 10867 10866 10865 10864 10863 10861 10860 10859 10857 10856 10854 10853 10852 10850 10848
10698 10709 10714 10713 10713 10716 10720 10726 10731 10737 10741 10744 10750 10756 10760 10766 10769 10770 10776 10781 10785 10793 10797 10799 10807 10810 10807 10812 10820 10825 10829 10833 10837 10841 10843 10845 10847 10849 10851 10853 10854 10856 10859 10861 10861 10861 10862 10864 10866 10866 10867 10867 10868 10869 10869 10870 10870 10869 10869 10869 10870 10869 10868 10868 10868 10868 10868 10866 10865 10864 10863 10863 10862 10861 10860 10859 10857 10856 10855 10854 10852 10851 10849 10848 10846 10844
10693 10702 10703 10702 10704 10708 10714 10720 10725 10730 10735 10740 10746 10752 10754 10757 10759 10762 10767 10771 10777 10786 10790 10792 10800 10803 10801 10807 10818 10822 10824 10827 10833 10837 10840 10842 10845 10845 10847 10848 10851 10852 10854 10855 10856 10857 10858 10860 10862 10862 10863 10864 10865 10865 10865 10865 10866 10865 10866 10866 10866 10865 10864 10864 10864 10864 10864 10862 10861 10860 10859 10859 10857 10857 10856 10854 10853 10851 10850 10849 10848 10846 10844 10843 10841 10839
10684 10691 10692 10691 10694 10700 10707 10713 10718 10724 10729 10734 10740 10745 10747 10746 10750 10754 10756 10760 10768 10777 10783 10784 10790 10798 10799 10804 10815 10817 10818 10822 10828 10833 10836 10839 10840 10840 10842 10844 10846 10847 10848 10850 10851 10852 10854 10856 10857 10858 10859 10860 10860 10860 10860 10862 10862 10862 10862 10862 10861 10860 10860 10860 10860 10860 10859 10858 10857 10856 10856 10855 10853 10853 10852 10850 10848 10846 10845 10844 10843 10842 10840 10838 10836 10835
10676 10683 10684 10684 10688 10696 10703 10710 10715 10718 10722 10727 10733 10738 10738 10736 10740 10747 10747 10750 10758 10769 10776 10775 10782 10796 10796 10799 10809 10812 10814 10818 10822 10828 10831 10833 10835 10836 10838 10839 10840 10842 10843 10845 10846 10847 10850 10851 10853 10854 10854 10855 10855 10855 10857 10858 10858 10857 10857 10857 10856 10855 10855 10856 10856 10856 10855 10854 10853 10852 10852 10851 10850 10849 10849 10847 10845 10842 10841 10840 10839 10838 10836 10834 10832 10830
10668 10675 10677 10678 10684 10691 10699 10706 10710 10714 10716 10722 10729 10730 10728 10728 10732 10737 10737 10741 10751 10762 10767 10765 10776 10791 10788 10792 10803 10806 10810 10814 10816 10823 10827 10828 10831 10832 10833 10834 10835 10837 10839 10840 10841 10842 10844 10846 10848 10849 10849 10850 10850 10851 10854 10854 10854 10853 10852 10852 10852 10851 10851 10851 10851 10851 10850 10849 10849 10848 10847 10846 10845 10845 10845 10844 10841 10839 10837 10836 10835 10834 10832 10830 10828 10826
10663 10670 10672 10674 10680 10685 10694 10702 10704 10705 10707 10715 10722 10718 10718 10720 10720 10725 10730 10738 10747 10755 10759 10762 10773 10782 10783 10791 10799 10800 10806 10811 10814 10821 10823 10824 10826 10827 10828 10829 10830 10832 10833 10835 10836 10838 10839 10841 10842 10843 10844 10845 10846 10848 10850 10849 10849 10849 10848 10848 10847 10847 10846 10846 10847 10846 10846 10845 10844 10843 10842 10842 10841 10841 10841 10840 10838 10836 10834 10832 10831 10830 10828 10826 10823 10822
10656 10661 10663 10664 10670 10678 10688 10694 10694 10694 10697 10707 10711 10707 10709 10711 10711 10718 10726 10735 10741 10744 10754 10764 10769 10778 10787 10792 10793 10795 10804 10809 10813 10817 10819 10819 10821 10822 10822 10823 10824 10825 10827 10830 10832 10833 10834 10836 10838 10839 10840 10841 10842 10843 10844 10844 10844 10844 10844 10844 10843 10842 10842 10842 10842 10841 10841 10840 10839 10838 10837 10836 10836 10836 10835 10835 10833 10831 10829 10828 10826 10825 10823 10821 10818 10817
10649 10653 10655 10659 10667 10677 10683 10685 10687 10687 10691 10699 10701 10699 10701 10704 10709 10713 10719 10728 10730 10736 10754 10763 10764 10775 10786 10786 10784 10792 10803 10808 10809 10810 10812 10813 10815 10817 10818 10817 10819 10820 10822 10825 10827 10828 10829 10831 10833 10834 10836 10836 10836 10837 10838 10838 10839 10839 10839 10840 10839 10838 10838 10838 10837 10836 10836 10835 10834 10833 10832 10831 10831 10830 10829 10828 10827 10825 10824 10822 10821 10819 10818 10816 10814 10812
10647 10652 10655 10662 10670 10676 10678 10679 10682 10682 10686 10692 10695 10696 10697 10700 10705 10706 10710 10716 10719 10734 10752 10756 10757 10766 10778 10780 10780 10790 10800 10802 10801 10800 10803 10806 10808 10811 10812 10811 10813 10815 10817 10820 10822 10824 10825 10826 10827 10829 10829 10829 10830 10831 10832 10832 10833 10834 10834 10835 10835 10834 10834 10834 10833 10832 10831 10830 10829 10827 10826 10825 10824 10824 10823 10822 10821 10819 10818 10817 10815 10813 10812 10810 10808 10806
10644 10648 10653 10659 10664 10667 10668 10671 10673 10674 10680 10685 10690 10694 10692 10693 10697 10697 10701 10705 10715 10737 10748 10747 10749 10754 10771 10780 10776 10783 10793 10793 10793 10795 10796 10799 10801 10803 10805 10806 10808 10811 10814 10816 10817 10818 10819 10820 10821 10821 10822 10822 10824 10826 10826 10826 10827 10828 10829 10829 10829 10829 10829 10830 10829 10828 10826 10825 10823 10822 10821 10820 10819 10818 10817 10816 10815 10813 10812 10810 10809 10807 10805 10804 10802 10799
10637 10642 10646 10649 10653 10656 10658 10661 10664 10668 10674 10679 10685 10688 10684 10685 10689 10692 10698 10703 10716 10735 10740 10740 10740 10745 10769 10781 10770 10774 10785 10785 10788 10789 10789 10793 10795 10797 10800 10802 10804 10806 10809 10811 10811 10812 10813 10814 10814 10814 10815 10817 10819 10820 10820 10821 10822 10822 10823 10823 10823 10823 10824 10825 10824 10823 10821 10820 10818 10816 10815 10814 10813 10812 10811 10810 10809 10807 10805 10804 10802 10801 10799 10797 10795 10792
10625 10629 10633 10637 10641 10645 10648 10652 10657 10661 10666 10671 10676 10677 10675 10677 10683 10691 10698 10703 10714 10724 10728 10731 10728 10738 10768 10776 10765 10767 10774 10778 10782 10782 10784 10787 10789 10792 10794 10796 10798 10800 10802 10804 10804 10805 10806 10807 10807 10808 10809 10811 10813 10814 10815 10816 10816 10816 10817 10817 10817 10817 10818 10818 10817 10816 10815 10813 10812 10811 10810 10809 10808 10807 10805 10804 10802 10801 10799 10798 10796 10795 10792 10790 10788 10785
10614 10617 10623 10627 10630 10634 10637 10641 10646 10649 10653 10658 10663 10663 10663 10668 10676 10685 10689 10694 10703 10707 10711 10716 10719 10737 10763 10768 10762 10761 10763 10770 10775 10776 10779 10781 10782 10785 10787 10790 10792 10792 10794 10796 10797 10798 10799 10800 10801 10803 10804 10806 10807 10808 10809 10810 10810 10811 10811 10811 10811 10810 10811 10811 10810 10809 10808 10806 10806 10805 10804 10803 10802 10801 10800 10798 10796 10795 10793 10792 10790 10788 10786 10783 10781 10778
10608 10612 10616 10619 10622 10625 10628 10631 10636 10638 10642 10648 10651 10652 10659 10665 10669 10673 10675 10683 10691 10691 10696 10706 10717 10736 10752 10757 10757 10754 10754 10762 10767 10770 10773 10774 10775 10776 10779 10783 10784 10784 10786 10788 10790 10791 10792 10794 10796 10798 10799 10800 10801 10802 10803 10804 10804 10805 10805 10805 10804 10803 10804 10804 10803 10802 10801 10800 10799 10798 10797 10796 10795 10795 10793 10792 10790 10789 10787 10785 10784 10781 10779 10777 10774 10772
10600 10603 10606 10611 10615 10618 10621 10624 10628 10631 10635 10640 10644 10651 10659 10659 10659 10664 10670 10677 10679 10682 10691 10702 10716 10731 10739 10746 10751 10749 10749 10753 10757 10762 10766 10766 10767 10768 10771 10774 10775 10777 10779 10780 10783 10784 10786 10788 10790 10792 10794 10795 10795 10796 10797 10798 10798 10798 10798 10798 10797 10797 10797 10797 10796 10796 10795 10794 10793 10792 10791 10790 10789 10788 10787 10785 10784 10782 10781 10779 10777 10775 10773 10770 10767 10765
10587 10589 10593 10598 10602 10605 10608 10611 10616 10621 10627 10634 10642 10649 10649 10645 10648 10657 10664 10668 10670 10678 10688 10697 10709 10721 10727 10738 10746 10746 10746 10746 10748 10754 10756 10758 10760 10761 10763 10763 10765 10769 10771 10773 10776 10777 10780 10781 10783 10786 10788 10789 10790 10790 10791 10791 10791 10791 10791 10791 10790 10790 10790 10790 10789 10789 10788 10787 10786 10785 10784 10783 10782 10781 10779 10778 10777 10775 10774 10772 10770 10768 10765 10763 10760 10757
10578 10580 10584 10588 10592 10597 10600 10604 10610 10615 10622 10630 10636 10639 10636 10637 10646 10652 10657 10662 10666 10674 10684 10689 10698 10709 10719 10731 10737 10738 10740 10740 10740 10744 10747 10751 10753 10754 10754 10754 10756 10760 10763 10766 10768 10770 10773 10775 10777 10780 10782 10783 10784 10783 10784 10784 10784 10784 10784 10784 10783 10783 10783 10782 10782 10782 10781 10780 10779 10778 10777 10776 10775 10774 10772 10771 10769 10768 10766 10764 10762 10760 10758 10755 10752 10750
10570 10573 10577 10581 10585 10589 10593 10600 10607 10612 10617 10622 10627 10630 10631 10635 10642 10646 10651 10658 10661 10667 10677 10682 10688 10700 10712 10721 10725 10730 10733 10732 10733 10736 10739 10743 10745 10746 10746 10746 10749 10753 10756 10759 10762 10764 10767 10769 10772 10774 10775 10776 10776 10776 10777 10776 10777 10776 10776 10776 10776 10775 10775 10775 10774 10774 10773 10773 10772 10771 10770 10769 10768 10767 10765 10764 10762 10760 10758 10756 10755 10752 10750 10747 10744 10741
10559 10563 10568 10572 10575 10582 10590 10596 10599 10601 10604 10611 10618 10623 10626 10629 10633 10637 10643 10651 10655 10661 10669 10675 10682 10694 10704 10709 10715 10721 10725 10726 10728 10729 10731 10733 10735 10737 10739 10741 10744 10747 10749 10753 10755 10758 10760 10762 10764 10765 10766 10767 10767 10768 10769 10769 10770 10770 10769 10769 10768 10768 10768 10767 10766 10766 10765 10764 10763 10763 10762 10761 10761 10760 10758 10756 10755 10753 10751 10749 10747 10744 10741 10738 10735 10732
10550 10552 10557 10562 10568 10575 10581 10583 10584 10587 10592 10600 10607 10613 10617 10619 10622 10627 10634 10643 10648 10652 10659 10666 10675 10687 10695 10700 10706 10711 10716 10720 10722 10722 10723 10723 10724 10728 10732 10735 10738 10740 10742 10744 10747 10750 10753 10755 10756 10757 10757 10758 10759 10760 10761 10762 10763 10763 10763 10762 10761 10761 10761 10759 10758 10757 10756 10755 10755 10754 10754 10753 10753 10751 10750 10748 10746 10744 10742 10740 10737 10735 10732 10729 10726 10723
10538 10541 10547 10553 10559 10563 10567 10570 10574 10578 10584 10590 10597 10605 10608 10608 10614 10620 10628 10635 10636 10641 10650 10655 10667 10683 10687 10689 10696 10701 10706 10712 10714 10715 10714 10712 10714 10718 10722 10727 10731 10733 10734 10736 10738 10741 10744 10747 10748 10749 10750 10751 10752 10753 10754 10755 10756 10756 10756 10755 10754 10754 10753 10751 10750 10749 10748 10747 10746 10746 10745 10744 10743 10742 10740 10739 10737 10735 10733 10730 10728 10725 10723 10720 10717 10714
10527 10531 10537 10544 10548 10550 10556 10562 10565 10569 10576 10583 10591 10597 10597 10601 10607 10610 10618 10623 10624 10635 10645 10646 10662 10681 10680 10679 10688 10692 10695 10701 10704 10705 10705 10704 10705 10708 10711 10717 10721 10723 10726 10728 10731 10733 10736 10738 10739 10741 10742 10744 10745 10746 10746 10747 10748 10748 10748 10747 10747 10746 10744 10743 10742 10741 10740 10739 10738 10738 10737 10736 10735 10733 10732 10730 10728 10726 10723 10721 10718 10716 10713 10711 10708 10705
10514 10519 10525 10531 10535 10540 10547 10555 10561 10566 10571 10576 10583 10585 10587 10592 10594 10597 10607 10611 10615 10632 10639 10638 10658 10675 10671 10672 10680 10682 10686 10691 10694 10697 10698 10697 10697 10698 10702 10706 10709 10714 10718 10721 10723 10725 10727 10729 10731 10733 10734 10736 10737 10738 10738 10739 10740 10740 10740 10739 10738 10737 10736 10735 10734 10734 10733 10732 10731 10731 10729 10729 10727 10725 10723 10721 10719 10717 10714 10712 10709 10706 10704 10701 10699 10696
10497 10504 10511 10518 10525 10534 10542 10549 10556 10558 10557 10560 10566 10570 10574 10578 10581 10588 10595 10599 10613 10630 10630 10634 10654 10664 10663 10666 10669 10671 10677 10681 10683 10687 10689 10687 10687 10690 10692 10695 10699 10704 10708 10711 10714 10716 10719 10721 10722 10724 10726 10727 10729 10730 10730 10731 10731 10731 10731 10730 10729 10728 10728 10727 10727 10727 10726 10725 10724 10723 10722 10721 10719 10717 10715 10712 10710 10708 10705 10703 10700 10698 10695 10693 10690 10687
10489 10498 10507 10516 10524 10530 10534 10538 10540 10539 10540 10546 10552 10556 10560 10565 10570 10576 10581 10593 10612 10618 10617 10630 10644 10646 10652 10658 10656 10659 10666 10669 10670 10673 10675 10676 10678 10680 10683 10685 10689 10693 10697 10701 10704 10707 10710 10712 10714 10716 10718 10720 10722 10722 10723 10723 10722 10722 10721 10720 10720 10719 10719 10719 10719 10718 10718 10717 10716 10715 10714 10712 10710 10708 10706 10703 10701 10698 10696 10694 10691 10689 10686 10684 10681 10678
10488 10499 10509 10515 10518 10521 10524 10527 10529 10531 10534 10539 10543 10548 10554 10558 10563 10569 10578 10593 10602 10603 10611 10624 10627 10631 10642 10645 10642 10647 10652 10654 10656 10658 10662 10666 10668 10671 10675 10677 10680 10683 10687 10691 10695 10699 10702 10705 10707 10710 10711 10713 10714 10714 10714 10714 10713 10712 10711 10711 10711 10711 10711 10711 10711 10710 10709 10709 10708 10707 10706 10704 10701 10699 10696 10694 10692 10689 10687 10685 10682 10680 10677 10674 10672 10668
10487 10497 10502 10504 10507 10511 10514 10518 10521 10523 10525 10528 10533 10541 10547 10552 10559 10569 10581 10589 10591 10599 10613 10616 10614 10626 10635 10630 10633 10640 10640 10640 10645 10649 10654 10657 10659 10662 10666 10669 10673 10675 10678 10682 10686 10690 10694 10697 10700 10702 10703 10705 10705 10705 10704 10703 10703 10702 10702 10702 10703 10703 10703 10703 10702 10702 10701 10701 10700 10698 10697 10694 10692 10689 10686 10684 10682 10680 10678 10675 10673 10670 10667 10665 10662 10659
10482 10489 10493 10495 10498 10502 10505 10510 10513 10513 10516 10521 10528 10536 10542 10549 10557 10566 10574 10578 10581 10594 10606 10604 10609 10622 10623 10620 10628 10633 10631 10633 10639 10644 10648 10647 10648 10653 10657 10661 10665 10667 10670 10674 10677 10681 10685 10688 10691 10693 10694 10695 10694 10694 10693 10693 10693 10693 10693 10694 10695 10695 10695 10694 10694 10694 10693 10692 10691 10689 10687 10684 10681 10679 10676 10674 10672 10670 10668 10665 10663 10661 10658 10655 10653 10650
10475 10480 10485 10487 10489 10493 10498 10502 10503 10503 10506 10512 10522 10533 10541 10547 10553 10560 10566 10568 10573 10585 10591 10592 10603 10613 10611 10612 10619 10622 10624 10628 10632 10636 10638 10638 10640 10644 10647 10650 10654 10658 10662 10666 10669 10673 10677 10679 10681 10682 10683 10683 10682 10682 10683 10682 10683 10684 10684 10685 10686 10686 10686 10686 10685 10685 10683 10682 10680 10678 10675 10673 10670 10668 10666 10664 10662 10660 10658 10656 10653 10651 10649 10646 10643 10640
10465 10469 10475 10477 10479 10485 10489 10490 10491 10493 10494 10502 10518 10533 10539 10542 10547 10552 10556 10560 10566 10574 10576 10582 10596 10603 10599 10598 10605 10611 10614 10616 10620 10623 10625 10628 10630 10631 10633 10638 10644 10650 10655 10659 10662 10665 10668 10669 10670 10671 10670 10670 10671 10671 10672 10672 10674 10675 10675 10676 10677 10677 10677 10676 10675 10674 10673 10671 10669 10666 10664 10662 10660 10658 10656 10654 10652 10650 10648 10646 10644 10641 10639 10636 10633 10629
10452 10457 10463 10464 10467 10472 10474 10474 10477 10477 10479 10497 10520 10528 10528 10531 10535 10540 10546 10551 10555 10559 10564 10575 10585 10586 10582 10583 10590 10597 10600 10602 10607 10610 10611 10613 10613 10616 10622 10629 10637 10645 10648 10651 10654 10656 10658 10660 10659 10659 10658 10658 10660 10661 10662 10664 10665 10666 10667 10668 10668 10668 10667 10666 10665 10664 10662 10660 10658 10657 10655 10653 10650 10648 10646 10645 10643 10641 10639 10636 10634 10632 10629 10626 10622 10618
10434 10439 10444 10448 10451 10456 10459 10461 10461 10462 10476 10502 10518 10515 10512 10518 10524 10530 10537 10541 10543 10548 10556 10565 10569 10571 10574 10576 10579 10584 10588 10592 10597 10598 10597 10599 10601 10608 10618 10625 10631 10636 10637 10640 10643 10646 10648 10649 10647 10647 10648 10649 10652 10654 10655 10657 10657 10657 10658 10659 10658 10658 10657 10656 10655 10654 10653 10651 10650 10648 10645 10643 10641 10638 10637 10635 10633 10631 10629 10626 10624 10621 10618 10614 10611 10607
10420 10425 10432 10439 10443 10448 10453 10453 10454 10466 10487 10504 10507 10502 10502 10508 10515 10522 10527 10531 10535 10540 10548 10553 10556 10560 10565 10567 10568 10571 10575 10581 10587 10588 10588 10590 10594 10601 10610 10618 10623 10625 10626 10630 10633 10635 10635 10635 10635 10638 10640 10643 10646 10647 10648 10649 10648 10648 10649 10648 10648 10649 10648 10647 10647 10645 10644 10642 10640 10638 10635 10633 10630 10628 10627 10625 10623 10621 10618 10615 10612 10609 10606 10602 10598 10595
10419 10425 10432 10437 10440 10445 10449 10450 10457 10474 10488 10494 10498 10500 10499 10500 10508 10513 10517 10523 10527 10531 10537 10542 10545 10548 10554 10558 10560 10560 10562 10569 10576 10580 10582 10584 10587 10593 10602 10610 10613 10614 10616 10619 10620 10620 10621 10623 10627 10630 10633 10635 10637 10638 10638 10638 10638 10638 10639 10639 10640 10640 10639 10639 10638 10636 10633 10631 10629 10626 10624 10622 10620 10618 10617 10615 10613 10610 10606 10603 10600 10597 10593 10590 10586 10582
10425 10429 10433 10436 10439 10444 10447 10451 10459 10469 10479 10487 10494 10498 10495 10494 10499 10503 10508 10516 10520 10521 10527 10533 10535 10539 10545 10549 10550 10550 10551 10557 10566 10575 10580 10579 10579 10584 10594 10601 10602 10601 10603 10606 10607 10609 10611 10614 10618 10621 10624 10626 10627 10627 10628 10627 10627 10629 10629 10629 10630 10630 10630 10629 10627 10625 10621 10619 10616 10614 10613 10611 10610 10608 10606 10603 10600 10597 10594 10591 10588 10584 10581 10577 10574 10570
10425 10428 10431 10432 10436 10440 10443 10449 10456 10464 10477 10488 10491 10491 10491 10488 10486 10487 10498 10512 10513 10510 10514 10521 10524 10527 10532 10535 10538 10540 10540 10547 10561 10572 10572 10564 10563 10570 10580 10586 10585 10585 10590 10595 10599 10602 10604 10606 10610 10612 10615 10616 10616 10616 10616 10616 10617 10618 10619 10620 10620 10620 10620 10619 10616 10612 10608 10605 10604 10602 10601 10600 10598 10595 10593 10590 10587 10584 10582 10579 10575 10572 10568 10564 10561 10559
10419 10422 10424 10424 10429 10436 10441 10447 10454 10465 10479 10485 10483 10482 10484 10480 10472 10469 10484 10506 10508 10498 10500 10509 10512 10514 10517 10521 10526 10529 10534 10545 10557 10559 10550 10541 10546 10558 10567 10571 10572 10576 10583 10588 10591 10594 10596 10597 10600 10602 10604 10605 10604 10604 10605 10606 10607 10608 10608 10608 10608 10608 10608 10606 10601 10597 10594 10592 10592 10590 10589 10587 10584 10582 10580 10577 10575 10572 10569 10566 10562 10559 10556 10552 10549 10546
10413 10416 10417 10418 10427 10437 10440 10442 10450 10462 10471 10474 10474 10475 10475 10470 10460 10456 10474 10501 10504 10489 10486 10493 10496 10500 10505 10509 10516 10525 10534 10541 10543 10538 10530 10529 10539 10552 10560 10564 10568 10572 10576 10579 10581 10583 10585 10586 10587 10588 10590 10591 10591 10592 10593 10594 10595 10596 10596 10595 10594 10595 10594 10589 10585 10582 10581 10581 10579 10577 10576 10574 10572 10570 10567 10565 10563 10560 10557 10553 10550 10547 10544 10540 10537 10534
10405 10407 10409 10414 10423 10430 10432 10435 10444 10455 10460 10462 10464 10466 10464 10457 10452 10457 10474 10489 10487 10475 10468 10471 10480 10490 10497 10502 10512 10523 10527 10529 10529 10527 10523 10526 10535 10544 10551 10555 10558 10560 10562 10565 10567 10569 10570 10572 10573 10573 10575 10577 10578 10579 10580 10580 10582 10582 10582 10581 10581 10580 10577 10573 10572 10571 10570 10569 10567 10565 10564 10562 10559 10558 10555 10552 10550 10547 10544 10541 10537 10535 10532 10528 10525 10522
10400 10402 10405 10410 10417 10422 10425 10427 10434 10444 10452 10453 10453 10456 10456 10452 10453 10458 10460 10459 10462 10463 10457 10458 10473 10488 10494 10499 10508 10514 10516 10519 10522 10521 10518 10520 10525 10531 10536 10540 10544 10546 10548 10551 10553 10555 10557 10558 10559 10560 10562 10563 10564 10565 10566 10567 10568 10569 10568 10568 10567 10564 10562 10561 10561 10560 10558 10556 10555 10554 10551 10549 10547 10545 10542 10540 10537 10534 10531 10528 10525 10523 10519 10516 10513 10510
10394 10394 10398 10405 10410 10414 10416 10418 10426 10443 10451 10446 10443 10448 10452 10448 10441 10437 10435 10438 10451 10460 10459 10459 10469 10481 10488 10493 10497 10501 10505 10509 10511 10511 10511 10512 10515 10518 10522 10527 10530 10533 10536 10539 10541 10543 10545 10546 10547 10549 10549 10550 10551 10552 10553 10554 10555 10556 10556 10555 10553 10551 10550 10550 10549 10547 10545 10544 10542 10540 10538 10536 10534 10531 10529 10526 10524 10521 10519 10516 10513 10510 10507 10504 10501 10497
10385 10388 10394 10402 10405 10408 10411 10416 10426 10439 10440 10430 10428 10434 10436 10429 10420 10418 10424 10434 10444 10453 10456 10457 10459 10467 10477 10483 10486 10489 10494 10497 10499 10502 10504 10504 10506 10507 10510 10514 10517 10520 10524 10527 10530 10531 10533 10534 10535 10536 10537 10537 10538 10539 10540 10541 10542 10542 10542 10541 10539 10538 10538 10537 10535 10534 10533 10531 10529 10527 10525 10522 10520 10518 10515 10513 10511 10509 10506 10504 10501 10498 10495 10491 10487 10483
10382 10387 10391 10396 10397 10399 10404 10408 10413 10421 10421 10417 10417 10421 10421 10418 10416 10418 10424 10430 10436 10445 10452 10453 10453 10457 10465 10471 10475 10478 10481 10484 10487 10491 10494 10496 10499 10500 10501 10503 10506 10509 10512 10515 10517 10519 10520 10521 10522 10523 10524 10524 10525 10526 10526 10527 10528 10528 10528 10527 10526 10526 10525 10523 10522 10521 10519 10518 10516 10513 10511 10509 10507 10505 10503 10501 10499 10497 10494 10491 10488 10485 10481 10477 10473 10468
10374 10376 10379 10384 10385 10386 10392 10399 10404 10410 10414 10414 10413 10413 10414 10415 10415 10416 10419 10423 10428 10435 10441 10444 10446 10448 10452 10458 10464 10467 10470 10474 10478 10482 10486 10489 10491 10493 10494 10495 10495 10497 10499 10501 10504 10506 10507 10509 10509 10510 10511 10511 10511 10512 10512 10513 10514 10514 10513 10513 10513 10512 10511 10510 10509 10508 10506 10504 10502 10500 10498 10496 10494 10492 10490 10488 10486 10484 10481 10478 10474 10471 10467 10463 10458 10453
10365 10368 10370 10374 10374 10378 10387 10395 10398 10401 10404 10406 10406 10405 10405 10407 10408 10409 10412 10416 10418 10423 10429 10434 10439 10441 10444 10448 10453 10458 10462 10467 10469 10472 10476 10479 10481 10483 10485 10485 10485 10486 10487 10488 10489 10491 10493 10495 10496 10497 10497 10497 10498 10499 10499 10500 10500 10500 10499 10499 10499 10498 10497 10496 10495 10494 10493 10491 10489 10487 10486 10484 10482 10479 10477 10475 10472 10469 10466 10463 10459 10456 10452 10447 10443 10439
10358 10358 10360 10363 10367 10373 10382 10387 10387 10389 10393 10398 10400 10400 10399 10400 10401 10403 10406 10409 10412 10416 10422 10427 10431 10435 10438 10441 10443 10448 10453 10456 10458 10461 10463 10466 10468 10470 10471 10472 10473 10474 10474 10475 10476 10477 10479 10480 10481 10483 10484 10485 10485 10486 10487 10487 10487 10487 10486 10486 10485 10484 10484 10483 10482 10481 10480 10478 10477 10475 10473 10470 10468 10466 10463 10461 10458 10455 10451 10448 10444 10441 10437 10432 10428 10424
10348 10349 10353 10357 10360 10366 10374 10379 10380 10382 10386 10390 10392 10393 10389 10386 10388 10392 10397 10402 10407 10410 10415 10419 10423 10427 10429 10431 10433 10436 10439 10442 10445 10447 10448 10451 10453 10455 10457 10459 10460 10461 10462 10463 10464 10466 10467 10468 10469 10470 10471 10472 10473 10474 10474 10475 10474 10474 10473 10472 10472 10472 10471 10471 10470 10469 10467 10465 10463 10461 10459 10457 10455 10452 10450 10447 10443 10440 10437 10433 10430 10426 10422 10418 10414 10410
10344 10348 10352 10354 10356 10364 10373 10377 10375 10374 10374 10376 10377 10376 10374 10373 10376 10382 10389 10395 10400 10403 10407 10410 10413 10415 10417 10419 10421 10423 10425 10428 10431 10433 10435 10438 10440 10442 10445 10446 10447 10449 10451 10452 10454 10455 10456 10456 10457 10458 10458 10459 10460 10460 10460 10460 10460 10460 10459 10459 10459 10459 10459 10458 10457 10456 10454 10452 10450 10447 10445 10443 10440 10438 10435 10432 10428 10425 10423 10419 10416 10412 10408 10404 10400 10396
10344 10347 10347 10347 10353 10360 10363 10362 10360 10358 10358 10361 10363 10364 10366 10370 10375 10379 10384 10389 10393 10396 10398 10400 10402 10404 10406 10408 10410 10412 10414 10416 10418 10421 10423 10425 10428 10431 10432 10433 10435 10436 10438 10440 10441 10443 10444 10445 10446 10445 10445 10445 10446 10446 10446 10446 10445 10445 10446 10446 10446 10446 10446 10445 10444 10442 10440 10438 10436 10433 10431 10428 10426 10423 10419 10417 10414 10411 10408 10405 10401 10397 10393 10389 10385 10381